Location: *
(51.8167°N, 12.5000°E)
Time: 12:58:24
(UTC+00:00)

Cosmos 1674 - Pass Details

Date: 16 September 2019
Orbit: 495 x 519 km, 82.5° (Epoch: 20 October)

Event Time Altitude Azimuth Distance (km) Brightness Sun altitude
Rises 18:50:48 0° 358° (N) 2,608 6.6 -13.9°
Reaches altitude 10° 18:53:12 10° 11° (NNE) 1,715 5.5 -14.3°
Maximum altitude 18:56:22 26° 69° (ENE) 1,027 3.8 -14.7°
Enters shadow 18:56:56 25° 85° (E) 1,054 3.8 -14.8°
